{"data":{"norad_id":48861,"intl_designator":"2021-055B","name":"YAOGAN-30 10B","alt_names":[],"object_type":"PAYLOAD","status":"ACTIVE","operator":null,"country":"PRC","launch_date":"2021-06-18","launch_site_code":"XICLF","launch_vehicle":null,"mission":null,"orbit_class":"UNKNOWN","rcs_meters":null,"size_class":null,"mass_kg":null,"dimensions":null,"purposes":[],"wikipedia_slug":null,"has_3d_model":false,"image_url":null,"decayed_at":null,"tle_current":{"epoch":"2026-09-20T04:17:56.393952Z","epoch_age_seconds":46077,"freshness":"FRESH","line1":"1 48861U 21055B   26263.17912493  .00001584  00000+0  11723-3 0  9999","line2":"2 48861  34.9959 292.7359 0004118 204.6680 155.3832 15.03077622287473","mean_motion":15.03077622,"eccentricity":0.0004118,"inclination_deg":34.9959,"raan_deg":292.7359,"arg_perigee_deg":204.668,"mean_anomaly_deg":155.3832,"bstar":0.00011723,"rev_number":28747,"period_min":95.803435492834,"perigee_km":554.55686016598,"apogee_km":560.26897907978,"semimajor_km":6935.5499196229,"source":"CELESTRAK","updated_at":"2026-09-20T09:00:15.219876Z"}}}